COSMOS 1275 DEB, 12950

Orbit data source: Space-Track

COSMOS 1275 DEB, 12950 is space debris in LEO originally from a launch on Thu, 04 Jun 1981 UTC launched from the Plesetsk Missile And Space Complex (PKMTR). Debris objects in space refer to the collection of defunct objects orbiting the Earth. Examples of debris include non-operational satellites, rocket bodies, and fragments generated from explosions, collisions, or faulty payload assembly.

Loading next visibility...
Identifier
12950, 1981-053EE
Orbit
LEO
Country
Flag of CISCIS
Related business
Manufacturer
Unknown
Mission
Spacecraft
Bus & Motor
Unknown
Mass
Unknown
Launch date (UTC)
1981-06-04 (44 years ago)
Launch vehicle
Unknown
Launch site
Plesetsk Missile And Space Complex (PKMTR)
Object type
Payload
Rocket body
Debris
Shape & HBR
Unknown shape, 0.1 m
Radar Cross Section
Small (<0.1 m²)

Expand to show TLE details & history
Last TLE update: 15 hours ago

TLE from 15 hours ago
0 COSMOS 1275 DEB
1 12950U 81053EE  25292.10400012  .00001954  00000-0  95792-3 0  9996
2 12950  83.0066 269.1374 0050346 295.6452 184.2210 14.16747081266589
Epoch: 2025-10-19T02:29Z
TLE epoch observation values (Epoch: 2025-10-19T02:29:45.610Z)
Latitude
59.53578°
Longitude
11.89888°
Altitude
882.727 km
Speed
7.398 km/s
True Right ascension
05h 08m 39s
True Declination
59° 23' 16"
Sunlit
Object was in daylight at epoch
Visualization orbit readout
Latitude
Unknown
Longitude
Unknown
Altitude
Unknown
Speed
Unknown
Apparent Right ascension
Unknown
Apparent Declination
Unknown
Sunlit
N/A
Visualization observer readout
Local Sidereal Time
12:36:14
Azimuth
Unknown
Elevation
Unknown
Doppler factor
Unknown
Orbital elements
Apogee altitude
869.771 km
Perigee altitude
797.156 km
Semi-major axis
7,211.601 km
Eccentricity
0.00503
Inclination
83.0066°
RAAN
269.1374°
Arg. of periapsis
295.6452°
True anomaly
184.1788°
Mean anomaly
184.221°
Eccentric anomaly
184.19987°
Mean motion
3.54402 °/min
Orbital period
101.58 mins
BSTAR
0.00095792
Loading maneuver chart data...
Computing Atmospheric mass density...

Documentation

Showing up to 5 results
|